User: anonymous
Location: Unspecified
(0.0000°N, 0.0000°E)
Time: 21:25:57
(UTC+02:00)
Language:

GPS 2-05 Rocket1 - Orbit

View from above orbital plane
View from above orbital plane
View from above satellite
View from above satellite

Ground track
Ground track

The orbit data is extracted from the following two-line orbital elements,

1 20362U 89097B   14105.36436197  .00016379  00000-0  60545-3 0  4079
2 20362 035.6241 073.9846 0116594 275.5977 214.5672 15.20660087321313
Epoch (UTC): 15 April 2014 08:44:40
Eccentricity: 0.0116594
inclination: 35.6241°
perigee height: 423 km
apogee height: 584 km
right ascension of ascending node: 73.9846°
argument of perigee: 275.5977°
revolutions per day: 15.20660087
mean anomaly at epoch: 214.5672°
orbit number at epoch: 32131

The dashed part of the orbit path shows where the satellite is in the earth's shadow,  

DLR